When you browse on this site, cookies collect data to enhance your experience and personalize the content and advertising you see.
Visit our Privacy Policy to learn more. By continuing to use the site, you agree to this use of cookies and data.
  • In Belgien
  • Länderverzeichnis
  • Für 7 Tage
  • Wassertemperatur
  • Wetterkarte
  • Widgets
  • user-avatar
    Anmelden

    Stündliche Wetter Rhodos

    Heute, 22 Januar, Mittwoch

    Zeit Temperatur Niederschläge Wind Luftdruck Luftfeuchtigkeit
    00:00 +3°C° 0 mm 6 m/S 740 mmHg 64%
    01:00 +3°C° 0 mm 6 m/S 739 mmHg 66%
    02:00 +3°C° 0 mm 6 m/S 739 mmHg 68%
    03:00 +3°C° 0 mm 5 m/S 739 mmHg 69%
    04:00 +2°C° 0 mm 5 m/S 739 mmHg 70%
    05:00 +3°C° 0 mm 4 m/S 738 mmHg 71%
    06:00 +3°C° 0 mm 4 m/S 738 mmHg 70%
    07:00 +3°C° 0 mm 4 m/S 739 mmHg 70%
    08:00 +3°C° 0 mm 4 m/S 739 mmHg 70%
    09:00 +5°C° 0 mm 4 m/S 739 mmHg 62%
    10:00 +8°C° 0 mm 3 m/S 739 mmHg 55%
    11:00 +10°C° 0 mm 3 m/S 739 mmHg 48%
    12:00 +11°C° 0 mm 3 m/S 739 mmHg 46%
    13:00 +11°C° 0 mm 3 m/S 738 mmHg 44%
    14:00 +12°C° 0 mm 3 m/S 738 mmHg 42%
    15:00 +11°C° 0 mm 3 m/S 738 mmHg 47%
    16:00 +10°C° 0 mm 3 m/S 738 mmHg 51%
    17:00 +8°C° 0 mm 3 m/S 738 mmHg 56%
    18:00 +8°C° 0 mm 3 m/S 738 mmHg 60%
    19:00 +7°C° 0 mm 3 m/S 737 mmHg 64%
    20:00 +7°C° 0 mm 3 m/S 737 mmHg 68%
    21:00 +5°C° 0 mm 3 m/S 737 mmHg 71%
    22:00 +5°C° 0 mm 3 m/S 737 mmHg 73%
    23:00 +5°C° 0 mm 3 m/S 737 mmHg 75%

    Morgen, 23 Januar, Donnerstag

    Zeit Temperatur Niederschläge Wind Luftdruck Luftfeuchtigkeit
    00:00 +5°C° 0 mm 4 m/S 737 mmHg 73%
    01:00 +5°C° 0 mm 4 m/S 737 mmHg 72%
    02:00 +6°C° 0 mm 5 m/S 736 mmHg 70%
    03:00 +6°C° 0 mm 5 m/S 736 mmHg 70%
    04:00 +5°C° 0 mm 6 m/S 736 mmHg 69%
    05:00 +5°C° 0 mm 6 m/S 735 mmHg 69%
    06:00 +5°C° 0 mm 6 m/S 735 mmHg 70%
    07:00 +6°C° 0 mm 7 m/S 736 mmHg 71%
    08:00 +6°C° 0 mm 7 m/S 736 mmHg 72%
    09:00 +7°C° 0 mm 8 m/S 736 mmHg 67%
    10:00 +10°C° 0 mm 8 m/S 736 mmHg 63%
    11:00 +11°C° 0 mm 9 m/S 736 mmHg 58%
    12:00 +11°C° 0 mm 9 m/S 735 mmHg 55%
    13:00 +11°C° 0 mm 9 m/S 735 mmHg 52%
    14:00 +11°C° 0 mm 9 m/S 735 mmHg 49%
    15:00 +11°C° 0 mm 9 m/S 735 mmHg 49%
    16:00 +10°C° 0 mm 8 m/S 735 mmHg 50%
    17:00 +9°C° 0 mm 8 m/S 735 mmHg 51%
    18:00 +8°C° 0 mm 9 m/S 735 mmHg 48%
    19:00 +8°C° 0 mm 9 m/S 736 mmHg 44%
    20:00 +8°C° 0 mm 10 m/S 736 mmHg 41%
    21:00 +7°C° 0 mm 10 m/S 737 mmHg 42%
    22:00 +7°C° 0 mm 10 m/S 737 mmHg 43%
    23:00 +6°C° 0 mm 10 m/S 738 mmHg 44%

    übermorgen, 24 Januar, Freitag

    Zeit Temperatur Niederschläge Wind Luftdruck Luftfeuchtigkeit
    00:00 +5°C° 0 mm 10 m/S 738 mmHg 44%
    01:00 +5°C° 0 mm 10 m/S 738 mmHg 44%
    02:00 +3°C° 0 mm 11 m/S 739 mmHg 43%
    03:00 +3°C° 0 mm 10 m/S 739 mmHg 44%
    04:00 +2°C° 0 mm 10 m/S 739 mmHg 45%
    05:00 +2°C° 0 mm 10 m/S 739 mmHg 46%
    06:00 +2°C° 0 mm 9 m/S 740 mmHg 48%
    07:00 +1°C° 0 mm 8 m/S 740 mmHg 50%
    08:00 +1°C° 0 mm 8 m/S 741 mmHg 52%
    09:00 +4°C° 0 mm 7 m/S 741 mmHg 47%
    10:00 +5°C° 0 mm 6 m/S 741 mmHg 43%
    11:00 +7°C° 0 mm 5 m/S 741 mmHg 38%
    12:00 +8°C° 0 mm 4 m/S 741 mmHg 37%
    13:00 +9°C° 0 mm 3 m/S 741 mmHg 37%
    14:00 +10°C° 0 mm 3 m/S 741 mmHg 37%
    15:00 +9°C° 0 mm 3 m/S 741 mmHg 42%
    16:00 +8°C° 0 mm 3 m/S 741 mmHg 47%
    17:00 +7°C° 0 mm 3 m/S 741 mmHg 52%
    18:00 +5°C° 0 mm 3 m/S 741 mmHg 53%
    19:00 +4°C° 0 mm 3 m/S 741 mmHg 54%
    20:00 +4°C° 0 mm 2 m/S 741 mmHg 55%
    21:00 +4°C° 0 mm 2 m/S 741 mmHg 52%
    22:00 +4°C° 0 mm 2 m/S 741 mmHg 50%
    23:00 +4°C° 0 mm 2 m/S 741 mmHg 48%

    25 Januar, Samstag

    Zeit Temperatur Niederschläge Wind Luftdruck Luftfeuchtigkeit
    00:00 +4°C° 0 mm 2 m/S 741 mmHg 50%
    01:00 +4°C° 0 mm 2 m/S 741 mmHg 52%
    02:00 +4°C° 0 mm 2 m/S 741 mmHg 54%
    03:00 +3°C° 0 mm 3 m/S 740 mmHg 59%
    04:00 +3°C° 0 mm 3 m/S 740 mmHg 63%
    05:00 +3°C° 0 mm 4 m/S 740 mmHg 68%
    06:00 +4°C° 0 mm 4 m/S 740 mmHg 66%
    07:00 +4°C° 0 mm 4 m/S 740 mmHg 65%
    08:00 +4°C° 0 mm 4 m/S 740 mmHg 64%
    09:00 +7°C° 0 mm 4 m/S 741 mmHg 60%
    10:00 +10°C° 0 mm 4 m/S 741 mmHg 55%
    11:00 +12°C° 0 mm 4 m/S 741 mmHg 50%
    12:00 +12°C° 0 mm 5 m/S 741 mmHg 50%
    13:00 +12°C° 0 mm 5 m/S 741 mmHg 50%
    14:00 +13°C° 0 mm 5 m/S 741 mmHg 51%
    15:00 +12°C° 0 mm 5 m/S 741 mmHg 55%
    16:00 +11°C° 0 mm 4 m/S 741 mmHg 60%
    17:00 +10°C° 0 mm 4 m/S 741 mmHg 65%
    18:00 +8°C° 0 mm 4 m/S 741 mmHg 70%
    19:00 +7°C° 0 mm 4 m/S 741 mmHg 75%
    20:00 +7°C° 0 mm 3 m/S 741 mmHg 80%
    21:00 +7°C° 0 mm 3 m/S 741 mmHg 81%
    22:00 +7°C° 0 mm 3 m/S 741 mmHg 82%
    23:00 +7°C° 0 mm 3 m/S 741 mmHg 83%

    26 Januar, Sonntag

    Zeit Temperatur Niederschläge Wind Luftdruck Luftfeuchtigkeit
    00:00 +6°C° 0 mm 2 m/S 741 mmHg 83%
    01:00 +6°C° 0 mm 2 m/S 741 mmHg 82%
    02:00 +6°C° 0 mm 2 m/S 741 mmHg 82%
    03:00 +6°C° 0 mm 2 m/S 741 mmHg 83%
    04:00 +6°C° 0 mm 2 m/S 741 mmHg 84%
    05:00 +6°C° 0 mm 2 m/S 741 mmHg 85%
    06:00 +7°C° 0 mm 1 m/S 741 mmHg 86%
    07:00 +8°C° 0 mm 1 m/S 741 mmHg 87%
    08:00 +8°C° 0 mm 1 m/S 741 mmHg 88%
    09:00 +10°C° 0 mm 1 m/S 742 mmHg 81%
    10:00 +12°C° 0 mm 1 m/S 742 mmHg 74%
    11:00 +14°C° 0 mm 1 m/S 742 mmHg 67%
    12:00 +14°C° 0 mm 1 m/S 742 mmHg 66%
    13:00 +15°C° 0 mm 1 m/S 741 mmHg 64%
    14:00 +15°C° 0 mm 1 m/S 741 mmHg 62%
    15:00 +14°C° 0 mm 1 m/S 741 mmHg 68%
    16:00 +13°C° 0 mm 1 m/S 741 mmHg 74%
    17:00 +12°C° 0 mm 1 m/S 740 mmHg 80%
    18:00 +11°C° 0 mm 1 m/S 740 mmHg 83%
    19:00 +10°C° 0 mm 1 m/S 740 mmHg 87%
    20:00 +9°C° 0 mm 1 m/S 740 mmHg 90%
    21:00 +9°C° 0 mm 1 m/S 740 mmHg 90%
    22:00 +8°C° 0 mm 2 m/S 740 mmHg 90%
    23:00 +8°C° 0 mm 2 m/S 741 mmHg 90%

    27 Januar, Montag

    Zeit Temperatur Niederschläge Wind Luftdruck Luftfeuchtigkeit
    00:00 +8°C° 0 mm 2 m/S 740 mmHg 89%
    01:00 +8°C° 0 mm 2 m/S 740 mmHg 89%
    02:00 +9°C° 0 mm 1 m/S 740 mmHg 89%
    03:00 +9°C° 0 mm 1 m/S 740 mmHg 88%
    04:00 +9°C° 0 mm 1 m/S 739 mmHg 88%
    05:00 +9°C° 0 mm 1 m/S 739 mmHg 88%
    06:00 +9°C° 0 mm 1 m/S 740 mmHg 86%
    07:00 +9°C° 0 mm 2 m/S 740 mmHg 84%
    08:00 +9°C° 0 mm 2 m/S 740 mmHg 82%
    09:00 +12°C° 0 mm 1 m/S 740 mmHg 76%
    10:00 +14°C° 0 mm 1 m/S 740 mmHg 69%
    11:00 +15°C° 0 mm 0 m/S 741 mmHg 63%
    12:00 +16°C° 0 mm 1 m/S 740 mmHg 62%
    13:00 +16°C° 0 mm 1 m/S 740 mmHg 61%
    14:00 +18°C° 0 mm 1 m/S 740 mmHg 61%
    15:00 +16°C° 0 mm 1 m/S 739 mmHg 66%
    16:00 +15°C° 0 mm 2 m/S 739 mmHg 71%
    17:00 +14°C° 0 mm 2 m/S 739 mmHg 76%
    18:00 +13°C° 0 mm 2 m/S 739 mmHg 79%
    19:00 +12°C° 0 mm 2 m/S 739 mmHg 82%
    20:00 +12°C° 0 mm 2 m/S 739 mmHg 85%
    21:00 +12°C° 0 mm 2 m/S 739 mmHg 86%
    22:00 +12°C° 0 mm 1 m/S 740 mmHg 87%
    23:00 +11°C° 0 mm 1 m/S 740 mmHg 89%
    Mehr zeigen